EKRAN 2 DEB, 59988

Orbit data source: Space-Track

EKRAN 2 DEB, 59988 is space debris in GEO originally from a launch on Tue, 20 Sep 1977 UTC launched from the Tyuratam Missile And Space Complex (TTMTR). Debris objects in space refer to the collection of defunct objects orbiting the Earth. Examples of debris include non-operational satellites, rocket bodies, and fragments generated from explosions, collisions, or faulty payload assembly.

Not visible in the next 10 days
Identifier
59988, 1977-092P
Orbit
GEO
Country
Flag of CISCIS
Related business
Manufacturer
Unknown
Mission
Spacecraft
Bus & Motor
Unknown
Mass
Unknown
Launch date (UTC)
1977-09-20 (48 years ago)
Launch vehicle
Unknown
Launch site
Tyuratam Missile And Space Complex (TTMTR)
Object type
Payload
Rocket body
Debris
Shape & HBR
Unknown shape, 1.1 m
Radar Cross Section
RCS unknown

Expand to show TLE details & history
Last TLE update: 2 months ago

TLE from 2 months ago
0 EKRAN 2 DEB
1 59988U 77092P   25252.90309862  .00000114  00000-0  00000-0 0  9993
2 59988   4.6772 275.6734 0371367 117.3065 305.4241  1.00892364 72226
Epoch: 2025-09-09T21:40Z
TLE epoch observation values (Epoch: 2025-09-09T21:40:27.720Z)
Latitude
4.01722°
Longitude
20.46861°
Altitude
34,741.905 km
Speed
3.146 km/s
True Right ascension
22h 19m 05s
True Declination
4° 00' 47"
Sunlit
Object was in daylight at epoch
Visualization orbit readout
Latitude
Unknown
Longitude
Unknown
Altitude
Unknown
Speed
Unknown
Apparent Right ascension
Unknown
Apparent Declination
Unknown
Sunlit
N/A
Visualization observer readout
Local Sidereal Time
21:09:08
Azimuth
Unknown
Elevation
Unknown
Doppler factor
Unknown
Orbital elements
Apogee altitude
37,174.054 km
Perigee altitude
34,055.112 km
Semi-major axis
41,992.72 km
Eccentricity
0.03714
Inclination
4.6772°
RAAN
275.6734°
Arg. of periapsis
117.3065°
True anomaly
301.86284°
Mean anomaly
305.4241°
Eccentric anomaly
303.65292°
Mean motion
0.25222 °/min
Orbital period
1,427.32 mins
BSTAR
0
Loading maneuver chart data...
Computing Atmospheric mass density...
Loading historical data...
Loading historical data...
Loading historical data...
Loading historical data...
Loading historical data...
Loading historical data...
Loading historical data...

Documentation

Showing up to 5 results
|